weather.gov     
National Weather Service

Terminal Aerodrome Forecast
NWS Homepage
This page is being discontinued on March 12, 2014.
The same data is available at this site. Please update your bookmarks.
Thank you, and we apologize for the inconvenience.
Please send an email to SR-SRH.Webmaster@noaa.gov with any concerns.


Current Version
Previous Version:    01  02  03  04  05  06  07  08  09  10  11  12  13  14  15  16  17  18  19  20  21  22  23  24  25  26  27  28  29  30  
   31  32  33  34  35  36  37  38  39  40  41  42  43  44  45  
[Printable]
145
FTUS43 KGRB 242300
TAFRHI
TAF
KRHI 242332Z 2500/2524 22007KT 6SM BR SCT012 OVC020
      TEMPO 2500/2502 OVC012
     FM250200 24007KT 6SM BR SCT006 OVC012
      TEMPO 2502/2505 4SM BR BKN006
     FM250500 27007KT 6SM BR SCT012 WS014/30035KT
     FM251400 28014G24KT P6SM SKC
     FM252300 27008KT P6SM SKC=


U.S. Dept. of Commerce
NOAA National Weather Service
1325 East West Highway
Silver Spring, MD 20910
E-mail: w-nws.webmaster@noaa.gov
Page last modified: May 16, 2007
NATIONAL WEATHER SERVICE: for Safety, for Work, for Fun - FOR LIFE